Location: Esp�n
(42.4593°N, 0.2047°W)
Time: 08:19:44
(UTC+00:00)

STARLINK-70 - Pass Details

Date: 03 October 2020
Orbit: 441 x 442 km, 53.0° (Epoch: 21 October)

Event Time Altitude Azimuth Distance (km) Brightness Sun altitude
Exits shadow 04:46:03 - 192° (SSW) 2,402 6.7 -14.5°
Reaches altitude 10° 04:48:39 10° 172° (S) 1,548 5.9 -14.0°
Maximum altitude 04:50:58 17° 130° (SE) 1,194 5.9 -13.6°
Drops below altitude 10° 04:53:18 10° 88° (E) 1,556 7.4 -13.2°
Sets 04:55:57 0° 67° (ENE) 2,430 8.5 -12.7°
